START_TIME,STEP,MOV.,M29,t_acc.,H22,t_acc.,H26,t_acc.,H30,t_acc.
1989-08-24T12:00:32.790 ,1,0,0.,24.0,0.,24.0,0.,24.0,0.,24.0
1989-08-24T12:00:56.790 ,0,1,0.,24.0,0.,24.0,0.,24.0,0.,24.0
1989-08-24T12:01:20.790 ,0,0,0.,24.0,0.,24.0,0.,24.0,0.,24.0
1989-08-24T12:01:44.790 ,0,1,0.,24.0,0.,24.0,0.,24.0,0.,24.0
1989-08-24T12:02:08.790 ,0,0,0.,24.0,0.,24.0,0.,24.0,0.,24.0
1989-08-24T12:02:32.790 ,1,1,0.,24.0,0.,24.0,0.,24.0,0.,24.0
1989-08-24T12:02:56.790 ,1,0,0.,24.0,0.,24.0,0.,24.0,0.,24.0
1989-08-24T12:03:20.790 ,2,1,0.,24.0,0.,24.0,0.,24.0,0.,24.0
1989-08-24T12:03:44.790 ,2,0,0.,24.0,0.,24.0,0.,24.0,0.,24.0
1989-08-24T12:04:08.790 ,3,1,0.,24.0,0.,24.0,0.,24.0,0.,24.0
1989-08-24T12:04:32.790 ,3,0,0.,24.0,0.,24.0,0.,24.0,0.,24.0
1989-08-24T12:04:56.790 ,4,1,0.,24.0,0.,24.0,0.,24.0,0.,24.0
1989-08-24T12:05:20.790 ,4,0,0.,24.0,0.,24.0,0.,24.0,0.,24.0
1989-08-24T12:05:44.790 ,5,1,0.,24.0,0.,24.0,0.,24.0,0.,24.0
1989-08-24T12:06:08.790 ,5,0,0.,24.0,0.,24.0,0.,24.0,0.,24.0
1989-08-24T12:06:32.790 ,6,1,0.,24.0,0.,24.0,0.,24.0,0.,24.0
1989-08-24T12:06:56.790 ,6,0,0.,24.0,0.,24.0,0.,24.0,0.,24.0
1989-08-24T12:07:20.790 ,7,1,0.,24.0,0.,24.0,0.,24.0,0.,24.0
1989-08-24T12:07:44.790 ,7,0,0.,24.0,0.,24.0,0.,24.0,0.,24.0
1989-08-24T12:08:08.790 ,7,1,0.,24.0,0.,24.0,0.,24.0,0.,24.0
1989-08-24T12:08:32.790 ,7,0,0.,24.0,0.,24.0,0.,24.0,0.,24.0
1989-08-24T12:08:56.790 ,6,1,0.,24.0,0.,24.0,0.,24.0,0.,24.0
1989-08-24T12:09:20.790 ,6,0,0.,24.0,0.,24.0,0.,24.0,0.,24.0
1989-08-24T12:09:44.790 ,5,1,0.,24.0,0.,24.0,0.,24.0,0.,24.0
1989-08-24T12:10:08.790 ,5,0,0.,24.0,0.,24.0,0.,24.0,0.,24.0
1989-08-24T12:10:32.790 ,4,1,0.,24.0,0.,24.0,0.,24.0,0.,24.0
1989-08-24T12:10:56.790 ,4,0,0.,24.0,0.,24.0,0.,24.0,0.,24.0
1989-08-24T12:11:20.790 ,3,1,0.,24.0,0.,24.0,0.,24.0,0.,24.0
1989-08-24T12:11:44.790 ,0,0,0.,24.0,0.,24.0,0.,24.0,0.,24.0
1989-08-24T12:12:08.780 ,2,1,0.,24.0,0.,24.0,0.,24.0,0.,24.0
1989-08-24T12:12:32.780 ,2,0,0.,24.0,0.,24.0,0.,24.0,0.,24.0
1989-08-24T12:12:56.780 ,1,1,0.,24.0,0.,24.0,0.,24.0,0.,24.0
1989-08-24T12:13:20.780 ,1,0,0.,24.0,0.,24.0,0.,24.0,0.,24.0
1989-08-24T12:13:44.780 ,0,1,0.,24.0,0.,24.0,0.,24.0,0.,24.0
1989-08-24T12:14:08.780 ,0,0,0.,24.0,0.,24.0,0.,24.0,0.,24.0
1989-08-24T12:14:32.780 ,0,1,0.,24.0,0.,24.0,0.,24.0,0.,24.0
1989-08-24T12:14:56.780 ,0,0,0.,24.0,0.,24.0,0.,24.0,0.,24.0
1989-08-24T12:15:20.780 ,1,1,0.,24.0,0.,24.0,0.,24.0,0.,24.0
1989-08-24T12:15:44.780 ,1,0,0.,24.0,0.,24.0,0.,24.0,0.,24.0
1989-08-24T12:16:08.780 ,2,1,0.,24.0,0.,24.0,0.,24.0,0.,24.0
1989-08-24T12:16:32.780 ,2,0,0.,24.0,0.,24.0,0.,24.0,0.,24.0
1989-08-24T12:16:56.780 ,3,1,0.,24.0,0.,24.0,0.,24.0,0.,24.0
1989-08-24T12:17:20.780 ,3,0,0.,24.0,0.,24.0,0.,24.0,0.,24.0
1989-08-24T12:17:44.780 ,4,1,0.,24.0,0.,24.0,0.,24.0,0.,24.0
1989-08-24T12:18:08.780 ,4,0,0.,24.0,0.,24.0,0.,24.0,0.,24.0
1989-08-24T12:18:32.780 ,5,1,0.,24.0,0.,24.0,0.,24.0,0.,24.0
1989-08-24T12:18:56.780 ,5,0,0.,24.0,0.,24.0,0.,24.0,0.,24.0
1989-08-24T12:19:20.780 ,6,1,0.,24.0,0.,24.0,0.,24.0,0.,24.0
1989-08-24T12:19:44.780 ,6,0,0.,24.0,0.,24.0,0.,24.0,0.,24.0
1989-08-24T12:20:08.780 ,7,1,0.,24.0,0.,24.0,0.,24.0,0.,24.0
1989-08-24T12:20:32.780 ,7,0,0.,24.0,0.,24.0,0.,24.0,0.,24.0
1989-08-24T12:20:56.780 ,7,1,0.,24.0,0.,24.0,0.,24.0,0.,24.0
1989-08-24T12:21:20.780 ,7,0,0.,24.0,0.,24.0,0.,24.0,0.,24.0
1989-08-24T12:21:44.780 ,6,1,0.,24.0,0.,24.0,0.,24.0,0.,24.0
1989-08-24T12:22:08.780 ,6,0,0.,24.0,0.,24.0,0.,24.0,0.,24.0
1989-08-24T12:22:32.780 ,5,1,0.,24.0,0.,24.0,0.,24.0,0.,24.0
1989-08-24T12:22:56.780 ,5,0,0.,24.0,0.,24.0,0.,24.0,0.,24.0
1989-08-24T12:23:20.780 ,4,1,0.,24.0,0.,24.0,0.,24.0,0.,24.0
1989-08-24T12:23:44.780 ,4,0,0.,24.0,0.,24.0,0.,24.0,0.,24.0
1989-08-24T12:24:08.780 ,3,1,0.,24.0,0.,24.0,0.,24.0,0.,24.0
1989-08-24T12:24:32.780 ,3,0,0.,24.0,0.,24.0,0.,24.0,0.,24.0
1989-08-24T12:24:56.780 ,2,1,0.,24.0,0.,24.0,0.,24.0,0.,24.0
1989-08-24T12:25:20.780 ,2,0,0.,24.0,0.,24.0,0.,24.0,0.,24.0
1989-08-24T12:25:44.780 ,1,1,0.,24.0,0.,24.0,0.,24.0,0.,24.0
1989-08-24T12:26:08.780 ,1,0,0.,24.0,0.,24.0,0.,24.0,0.,24.0
1989-08-24T12:26:32.780 ,0,1,0.,24.0,0.,24.0,0.,24.0,0.,24.0
1989-08-24T12:26:56.780 ,0,0,0.,24.0,0.,24.0,0.,24.0,0.,24.0
1989-08-24T12:27:20.780 ,0,1,0.,24.0,0.,24.0,0.,24.0,0.,24.0
1989-08-24T12:27:44.780 ,0,0,0.,24.0,0.,24.0,0.,24.0,0.,24.0
1989-08-24T12:28:08.780 ,1,1,0.,24.0,0.,24.0,0.,24.0,0.,24.0
1989-08-24T12:28:32.780 ,1,0,0.,24.0,0.,24.0,0.,24.0,0.,24.0
1989-08-24T12:28:56.780 ,2,1,0.,24.0,0.,24.0,0.,24.0,0.,24.0
1989-08-24T12:29:20.780 ,2,0,0.,24.0,0.,24.0,0.,24.0,0.,24.0
1989-08-24T12:29:44.780 ,3,1,0.,24.0,0.,24.0,0.,24.0,0.,24.0
1989-08-24T12:30:08.780 ,3,0,0.,24.0,0.,24.0,0.,24.0,0.,24.0
1989-08-24T12:30:32.780 ,4,1,0.,24.0,0.,24.0,0.,24.0,0.,24.0
1989-08-24T12:30:56.780 ,4,0,0.,24.0,0.,24.0,0.,24.0,0.,24.0
1989-08-24T12:31:20.780 ,5,1,0.,24.0,0.,24.0,0.,24.0,0.,24.0
1989-08-24T12:31:44.780 ,5,0,0.,24.0,0.,24.0,0.,24.0,0.,24.0
1989-08-24T12:32:08.780 ,6,1,0.,24.0,0.,24.0,0.,24.0,0.,24.0
1989-08-24T12:32:32.780 ,6,0,0.,24.0,0.,24.0,0.,24.0,0.,24.0
1989-08-24T12:32:56.780 ,7,1,0.,24.0,0.,24.0,0.,24.0,0.,24.0
1989-08-24T12:33:20.780 ,7,0,0.,24.0,0.,24.0,0.,24.0,0.,24.0
1989-08-24T12:33:44.780 ,7,1,0.,24.0,0.,24.0,0.,24.0,0.,24.0
1989-08-24T12:34:08.780 ,7,0,0.,24.0,0.,24.0,0.,24.0,0.,24.0
1989-08-24T12:34:32.780 ,6,1,0.,24.0,0.,24.0,0.,24.0,0.,24.0
1989-08-24T12:34:56.780 ,6,0,0.,24.0,0.,24.0,0.,24.0,0.,24.0
1989-08-24T12:35:20.780 ,5,1,0.,24.0,0.,24.0,0.,24.0,0.,24.0
1989-08-24T12:35:44.780 ,5,0,0.,24.0,0.,24.0,0.,24.0,0.,24.0
1989-08-24T12:36:08.780 ,4,1,0.,24.0,0.,24.0,0.,24.0,0.,24.0
1989-08-24T12:36:32.780 ,4,0,0.,24.0,0.,24.0,0.,24.0,0.,24.0
1989-08-24T12:36:56.780 ,3,1,0.,24.0,0.,24.0,0.,24.0,0.,24.0
1989-08-24T12:37:20.780 ,3,0,0.,24.0,0.,24.0,0.,24.0,0.,24.0
1989-08-24T12:37:44.780 ,2,1,0.,24.0,0.,24.0,0.,24.0,0.,24.0
1989-08-24T12:38:08.780 ,2,0,0.,24.0,0.,24.0,0.,24.0,0.,24.0
1989-08-24T12:38:32.780 ,1,1,0.,24.0,0.,24.0,0.,24.0,0.,24.0
1989-08-24T12:38:56.780 ,1,0,0.,24.0,0.,24.0,0.,24.0,0.,24.0
1989-08-24T12:39:20.780 ,0,1,0.,24.0,0.,24.0,0.,24.0,0.,24.0
1989-08-24T12:39:44.780 ,0,0,0.,24.0,0.,24.0,0.,24.0,0.,24.0
1989-08-24T12:40:08.780 ,0,1,0.,24.0,0.,24.0,0.,24.0,0.,24.0
1989-08-24T12:40:32.780 ,0,0,0.,24.0,0.,24.0,0.,24.0,0.,24.0
1989-08-24T12:40:56.780 ,1,1,0.,24.0,0.,24.0,0.,24.0,0.,24.0
1989-08-24T12:41:20.780 ,0,0,,0,,0,,0,,0
1989-08-24T12:41:36.380 ,0,0,,0,,0,,0,,0
1989-08-24T12:41:44.780 ,2,1,0.,24.0,0.,24.0,0.,24.0,0.,24.0
1989-08-24T12:42:08.780 ,2,0,0.,24.0,0.,24.0,0.,24.0,0.,24.0
1989-08-24T12:42:32.780 ,3,1,0.,24.0,0.,24.0,0.,24.0,0.,24.0
1989-08-24T12:42:56.780 ,3,0,0.,24.0,0.,24.0,0.,24.0,0.,24.0
1989-08-24T12:43:20.780 ,4,1,0.,24.0,0.,24.0,0.,24.0,0.,24.0
1989-08-24T12:43:44.780 ,4,0,0.,24.0,0.,24.0,0.,24.0,0.,24.0
1989-08-24T12:44:08.780 ,5,1,0.,24.0,0.,24.0,0.,24.0,0.,24.0
1989-08-24T12:44:32.780 ,5,0,0.,24.0,0.,24.0,0.,24.0,0.,24.0
1989-08-24T12:44:56.780 ,6,1,0.,24.0,0.,24.0,0.,24.0,0.,24.0
1989-08-24T12:45:20.780 ,6,0,0.,24.0,0.,24.0,0.,24.0,0.,24.0
1989-08-24T12:45:44.780 ,7,1,0.,24.0,0.,24.0,0.,24.0,0.,24.0
1989-08-24T12:46:08.780 ,7,0,0.,24.0,0.,24.0,0.,24.0,0.,24.0
1989-08-24T12:47:20.780 ,0,0,,0,,0,,0,,0
1989-08-24T12:47:44.780 ,0,0,,0,,0,,0,,0
1989-08-24T12:47:33.380 ,0,0,,0,,0,,0,,0
1989-08-24T12:47:44.780 ,0,0,,0,,0,,0,,0
1989-08-24T12:47:35.780 ,0,0,,0,,0,,0,,0
1989-08-24T12:47:44.780 ,0,0,,0,,0,,0,,0
1989-08-24T12:47:41.180 ,0,0,,0,,0,,0,,0
1989-08-24T12:47:44.780 ,0,0,0.,24.0,0.,24.0,0.,24.0,0.,24.0
1989-08-24T12:48:08.780 ,0,0,,0,,0,,0,,0
1989-08-24T12:48:32.780 ,0,0,,0,,0,,0,,0
1989-08-24T12:48:08.780 ,0,0,,0,,0,,0,,0
1989-08-24T12:48:32.780 ,0,0,,0,,0,,0,,0
1989-08-24T12:48:36.380 ,0,0,,0,,0,,0,,0
1989-08-24T12:48:44.180 ,0,0,,0,,0,,0,,0
1989-08-24T12:48:54.380 ,0,0,,0,,0,,0,,0
1989-08-24T12:49:02.780 ,0,0,,0,,0,,0,,0
1989-08-24T12:49:20.780 ,0,0,,0,,0,,0,,0
1989-08-24T12:49:32.780 ,0,0,,0,,0,,0,,0
1989-08-24T12:51:14.780 ,0,0,,0,,0,,0,,0
1989-08-24T12:51:20.780 ,1,1,0.,24.0,0.,24.0,0.,24.0,0.,24.0
1989-08-24T12:51:44.780 ,1,0,0.,24.0,0.,24.0,0.,24.0,0.,24.0
1989-08-24T12:52:08.780 ,0,1,0.,24.0,0.,24.0,0.,24.0,0.,24.0
1989-08-24T12:52:32.780 ,0,0,0.,24.0,0.,24.0,0.,24.0,0.,24.0
1989-08-24T12:52:56.780 ,0,1,0.,24.0,0.,24.0,0.,24.0,0.,24.0
1989-08-24T12:53:20.780 ,0,0,0.,24.0,0.,24.0,0.,24.0,0.,24.0
1989-08-24T12:53:44.780 ,1,1,0.,24.0,0.,24.0,0.,24.0,0.,24.0
1989-08-24T12:54:08.780 ,1,0,0.,24.0,0.,24.0,0.,24.0,0.,24.0
1989-08-24T12:54:32.780 ,2,1,0.,24.0,0.,24.0,0.,24.0,0.,24.0
1989-08-24T12:54:56.780 ,2,0,0.,24.0,0.,24.0,0.,24.0,0.,24.0
1989-08-24T12:55:20.780 ,3,1,0.,24.0,0.,24.0,0.,24.0,0.,24.0
1989-08-24T12:55:44.780 ,3,0,0.,24.0,0.,24.0,0.,24.0,0.,24.0
1989-08-24T12:56:08.780 ,4,1,0.,24.0,0.,24.0,0.,24.0,0.,24.0
1989-08-24T12:56:32.780 ,4,0,0.,24.0,0.,24.0,0.,24.0,0.,24.0
1989-08-24T12:56:56.780 ,5,1,0.,24.0,0.,24.0,0.,24.0,0.,24.0
1989-08-24T12:57:20.780 ,5,0,0.,24.0,0.,24.0,0.,24.0,0.,24.0
1989-08-24T12:57:44.780 ,6,1,0.,24.0,0.,24.0,0.,24.0,0.,24.0
1989-08-24T12:58:08.780 ,6,0,0.,24.0,0.,24.0,0.,24.0,0.,24.0
1989-08-24T12:58:32.780 ,7,1,0.,24.0,0.,24.0,0.,24.0,0.,24.0
1989-08-24T12:58:56.780 ,7,0,0.,24.0,0.,24.0,0.,24.0,0.,24.0
1989-08-24T12:59:20.780 ,7,1,0.,24.0,0.,24.0,0.,24.0,0.,24.0
1989-08-24T12:59:44.780 ,7,0,0.,24.0,0.,24.0,0.,24.0,0.,24.0
1989-08-24T13:00:08.780 ,6,1,0.,24.0,0.,24.0,0.,24.0,0.,24.0
1989-08-24T13:00:32.780 ,6,0,0.,24.0,0.,24.0,0.,24.0,0.,24.0
1989-08-24T13:00:56.780 ,5,1,0.,24.0,0.,24.0,0.,24.0,0.,24.0
1989-08-24T13:01:20.780 ,5,0,0.,24.0,0.,24.0,0.,24.0,0.,24.0
1989-08-24T13:01:44.780 ,4,1,0.,24.0,0.,24.0,0.,24.0,0.,24.0
1989-08-24T13:02:08.780 ,4,0,0.,24.0,0.,24.0,0.,24.0,0.,24.0
1989-08-24T13:02:32.780 ,3,1,0.,24.0,0.,24.0,0.,24.0,0.,24.0
1989-08-24T13:02:56.780 ,3,0,0.,24.0,0.,24.0,0.,24.0,0.,24.0
1989-08-24T13:03:20.780 ,2,1,0.,24.0,0.,24.0,0.,24.0,0.,24.0
1989-08-24T13:03:44.780 ,2,0,0.,24.0,0.,24.0,0.,24.0,0.,24.0
1989-08-24T13:04:08.780 ,1,1,0.,24.0,0.,24.0,0.,24.0,0.,24.0
1989-08-24T13:04:32.780 ,1,0,0.,24.0,0.,24.0,0.,24.0,0.,24.0
1989-08-24T13:04:56.780 ,0,1,0.,24.0,0.,24.0,0.,24.0,0.,24.0
1989-08-24T13:05:20.780 ,0,0,0.,24.0,0.,24.0,0.,24.0,0.,24.0
1989-08-24T13:05:44.780 ,0,1,0.,24.0,0.,24.0,0.,24.0,0.,24.0
1989-08-24T13:06:08.780 ,0,0,0.,24.0,0.,24.0,0.,24.0,0.,24.0
1989-08-24T13:06:32.780 ,1,1,0.,24.0,0.,24.0,0.,24.0,0.,24.0
1989-08-24T13:06:56.780 ,1,0,0.,24.0,0.,24.0,0.,24.0,0.,24.0
1989-08-24T13:07:20.780 ,2,1,0.,24.0,0.,24.0,0.,24.0,0.,24.0
1989-08-24T13:07:44.780 ,2,0,0.,24.0,0.,24.0,0.,24.0,0.,24.0
1989-08-24T13:08:08.780 ,3,1,0.,24.0,0.,24.0,0.,24.0,0.,24.0
1989-08-24T13:08:32.780 ,3,0,0.,24.0,0.,24.0,0.,24.0,0.,24.0
1989-08-24T13:08:56.780 ,4,1,0.,24.0,0.,24.0,0.,24.0,0.,24.0
1989-08-24T13:09:20.780 ,4,0,0.,24.0,0.,24.0,0.,24.0,0.,24.0
1989-08-24T13:09:44.780 ,5,1,0.,24.0,0.,24.0,0.,24.0,0.,24.0
1989-08-24T13:10:08.780 ,5,0,0.,24.0,0.,24.0,0.,24.0,0.,24.0
1989-08-24T13:10:32.780 ,6,1,0.,24.0,0.,24.0,0.,24.0,0.,24.0
1989-08-24T13:10:56.780 ,6,0,0.,24.0,0.,24.0,0.,24.0,0.,24.0
1989-08-24T13:11:20.780 ,7,1,0.,24.0,0.,24.0,0.,24.0,0.,24.0
1989-08-24T13:11:44.780 ,7,0,0.,24.0,0.,24.0,0.,24.0,0.,24.0
1989-08-24T13:12:08.780 ,7,1,0.,24.0,0.,24.0,0.,24.0,0.,24.0
1989-08-24T13:12:32.780 ,7,0,0.,24.0,0.,24.0,0.,24.0,0.,24.0
1989-08-24T13:12:56.780 ,6,1,0.,24.0,0.,24.0,0.,24.0,0.,24.0
1989-08-24T13:13:20.780 ,6,0,0.,24.0,0.,24.0,0.,24.0,0.,24.0
1989-08-24T13:13:44.780 ,5,1,0.,24.0,0.,24.0,0.,24.0,0.,24.0
1989-08-24T13:14:08.780 ,5,0,0.,24.0,0.,24.0,0.,24.0,0.,24.0
1989-08-24T13:14:32.780 ,4,1,0.,24.0,0.,24.0,0.,24.0,0.,24.0
1989-08-24T13:14:56.780 ,4,0,0.,24.0,0.,24.0,0.,24.0,0.,24.0
1989-08-24T13:15:20.780 ,3,1,0.,24.0,0.,24.0,0.,24.0,0.,24.0
1989-08-24T13:15:44.780 ,3,0,0.,24.0,0.,24.0,0.,24.0,0.,24.0
1989-08-24T13:16:08.780 ,2,1,0.,24.0,0.,24.0,0.,24.0,0.,24.0
1989-08-24T13:16:32.780 ,2,0,0.,24.0,0.,24.0,0.,24.0,0.,24.0
1989-08-24T13:16:56.780 ,1,1,0.,24.0,0.,24.0,0.,24.0,0.,24.0
1989-08-24T13:17:20.780 ,1,0,0.,24.0,0.,24.0,0.,24.0,0.,24.0
1989-08-24T13:17:44.780 ,0,1,0.,24.0,0.,24.0,0.,24.0,0.,24.0
1989-08-24T13:18:08.780 ,0,0,0.,24.0,0.,24.0,0.,24.0,0.,24.0
1989-08-24T13:18:32.780 ,0,1,0.,24.0,0.,24.0,0.,24.0,0.,24.0
1989-08-24T13:18:56.780 ,0,0,0.,24.0,0.,24.0,0.,24.0,0.,24.0
1989-08-24T13:19:20.780 ,1,1,0.,24.0,0.,24.0,0.,24.0,0.,24.0
1989-08-24T13:19:44.780 ,1,0,0.,24.0,0.,24.0,0.,24.0,0.,24.0
1989-08-24T13:20:08.780 ,2,1,0.,24.0,0.,24.0,0.,24.0,0.,24.0
1989-08-24T13:20:32.780 ,2,0,0.,24.0,0.,24.0,0.,24.0,0.,24.0
1989-08-24T13:20:56.780 ,3,1,0.,24.0,0.,24.0,0.,24.0,0.,24.0
1989-08-24T13:21:20.780 ,3,0,0.,24.0,0.,24.0,0.,24.0,0.,24.0
1989-08-24T13:21:44.780 ,4,1,0.,24.0,0.,24.0,0.,24.0,0.,24.0
1989-08-24T13:22:08.780 ,4,0,0.,24.0,0.,24.0,0.,24.0,0.,24.0
1989-08-24T13:22:32.780 ,5,1,0.,24.0,0.,24.0,0.,24.0,0.,24.0
1989-08-24T13:22:56.780 ,5,0,0.,24.0,0.,24.0,0.,24.0,0.,24.0
1989-08-24T13:23:20.780 ,6,1,0.,24.0,0.,24.0,0.,24.0,0.,24.0
1989-08-24T13:23:44.780 ,6,0,0.,24.0,0.,24.0,0.,24.0,0.,24.0
1989-08-24T13:24:08.780 ,7,1,0.,24.0,0.,24.0,0.,24.0,0.,24.0
1989-08-24T13:24:32.780 ,7,0,0.,24.0,0.,24.0,0.,24.0,0.,24.0
1989-08-24T13:24:56.780 ,7,1,0.,24.0,0.,24.0,0.,24.0,0.,24.0
1989-08-24T13:25:20.780 ,7,0,0.,24.0,0.,24.0,0.,24.0,0.,24.0
1989-08-24T13:25:44.780 ,6,1,0.,24.0,0.,24.0,0.,24.0,0.,24.0
1989-08-24T13:26:08.780 ,6,0,0.,24.0,0.,24.0,0.,24.0,0.,24.0
1989-08-24T13:26:32.780 ,5,1,0.,24.0,0.,24.0,0.,24.0,0.,24.0
1989-08-24T13:26:56.780 ,5,0,0.,24.0,0.,24.0,0.,24.0,0.,24.0
1989-08-24T13:27:20.780 ,4,1,0.,24.0,0.,24.0,0.,24.0,0.,24.0
1989-08-24T13:27:44.780 ,4,0,0.,24.0,0.,24.0,0.,24.0,0.,24.0
1989-08-24T13:28:08.780 ,3,1,0.,24.0,0.,24.0,0.,24.0,0.,24.0
1989-08-24T13:28:32.780 ,3,0,0.,24.0,0.,24.0,0.,24.0,0.,24.0
1989-08-24T13:28:56.780 ,2,1,0.,24.0,0.,24.0,0.,24.0,0.,24.0
1989-08-24T13:29:20.780 ,2,0,0.,24.0,0.,24.0,0.,24.0,0.,24.0
1989-08-24T13:29:44.780 ,1,1,0.,24.0,0.,24.0,0.,24.0,0.,24.0
1989-08-24T13:30:08.780 ,1,0,0.,24.0,0.,24.0,0.,24.0,0.,24.0
1989-08-24T13:30:32.780 ,0,1,0.,24.0,0.,24.0,0.,24.0,0.,24.0
1989-08-24T13:30:56.780 ,0,0,0.,24.0,0.,24.0,0.,24.0,0.,24.0
1989-08-24T13:31:20.780 ,0,1,0.,24.0,0.,24.0,0.,24.0,0.,24.0
1989-08-24T13:31:44.780 ,0,0,0.,24.0,0.,24.0,0.,24.0,0.,24.0
1989-08-24T13:32:08.780 ,1,1,0.,24.0,0.,24.0,0.,24.0,0.,24.0
1989-08-24T13:32:32.780 ,1,0,0.,24.0,0.,24.0,0.,24.0,0.,24.0
1989-08-24T13:32:56.780 ,2,1,0.,24.0,0.,24.0,0.,24.0,0.,24.0
1989-08-24T13:33:20.780 ,2,0,0.,24.0,0.,24.0,0.,24.0,0.,24.0
1989-08-24T13:33:44.780 ,3,1,0.,24.0,0.,24.0,0.,24.0,0.,24.0
1989-08-24T13:34:08.780 ,3,0,0.,24.0,0.,24.0,0.,24.0,0.,24.0
1989-08-24T13:34:32.780 ,4,1,0.,24.0,0.,24.0,0.,24.0,0.,24.0
1989-08-24T13:34:56.780 ,4,0,0.,24.0,0.,24.0,0.,24.0,0.,24.0
1989-08-24T13:35:20.780 ,5,1,0.,24.0,0.,24.0,0.,24.0,0.,24.0
1989-08-24T13:35:44.780 ,5,0,0.,24.0,0.,24.0,0.,24.0,0.,24.0
1989-08-24T13:36:08.780 ,6,1,0.,24.0,0.,24.0,0.,24.0,0.,24.0
1989-08-24T13:36:32.780 ,6,0,0.,24.0,0.,24.0,0.,24.0,0.,24.0
1989-08-24T13:36:56.780 ,7,1,0.,24.0,0.,24.0,0.,24.0,0.,24.0
1989-08-24T13:37:20.780 ,7,0,0.,24.0,0.,24.0,0.,24.0,0.,24.0
1989-08-24T13:37:44.780 ,7,1,0.,24.0,0.,24.0,0.,24.0,0.,24.0
1989-08-24T13:38:08.780 ,7,0,0.,24.0,0.,24.0,0.,24.0,0.,24.0
1989-08-24T13:38:32.780 ,6,1,0.,24.0,0.,24.0,0.,24.0,0.,24.0
1989-08-24T13:38:56.780 ,6,0,0.,24.0,0.,24.0,0.,24.0,0.,24.0
1989-08-24T13:39:20.780 ,5,1,0.,24.0,0.,24.0,0.,24.0,0.,24.0
1989-08-24T13:39:44.780 ,5,0,0.,24.0,0.,24.0,0.,24.0,0.,24.0
1989-08-24T13:40:08.780 ,4,1,0.,24.0,0.,24.0,0.,24.0,0.,24.0
1989-08-24T13:40:32.780 ,4,0,0.,24.0,0.,24.0,0.,24.0,0.,24.0
1989-08-24T13:40:56.780 ,3,1,0.,24.0,0.,24.0,0.,24.0,0.,24.0
1989-08-24T13:41:20.780 ,3,0,0.,24.0,0.,24.0,0.,24.0,0.,24.0
1989-08-24T13:41:44.780 ,2,1,0.,24.0,0.,24.0,0.,24.0,0.,24.0
1989-08-24T13:42:08.780 ,2,0,0.,24.0,0.,24.0,0.,24.0,0.,24.0
1989-08-24T13:42:32.780 ,1,1,0.,24.0,0.,24.0,0.,24.0,0.,24.0
1989-08-24T13:42:56.780 ,1,0,0.,24.0,0.,24.0,0.,24.0,0.,24.0
1989-08-24T13:43:20.780 ,0,1,0.,24.0,0.,24.0,0.,24.0,0.,24.0
1989-08-24T13:43:44.780 ,0,0,0.,24.0,0.,24.0,0.,24.0,0.,24.0
1989-08-24T13:44:08.780 ,0,1,0.,24.0,0.,24.0,0.,24.0,0.,24.0
1989-08-24T13:44:32.780 ,0,0,0.,24.0,0.,24.0,0.,24.0,0.,24.0
1989-08-24T13:44:56.780 ,1,1,0.,24.0,0.,24.0,0.,24.0,0.,24.0
1989-08-24T13:45:20.780 ,1,0,0.,24.0,0.,24.0,0.,24.0,0.,24.0
1989-08-24T13:45:44.780 ,2,1,0.,24.0,0.,24.0,0.,24.0,0.,24.0
1989-08-24T13:46:08.780 ,2,0,0.,24.0,0.,24.0,0.,24.0,0.,24.0
1989-08-24T13:46:32.780 ,3,1,0.,24.0,0.,24.0,0.,24.0,0.,24.0
1989-08-24T13:46:56.780 ,3,0,0.,24.0,0.,24.0,0.,24.0,0.,24.0
1989-08-24T13:47:20.780 ,4,1,0.,24.0,0.,24.0,0.,24.0,0.,24.0
1989-08-24T13:47:44.780 ,4,0,0.,24.0,0.,24.0,0.,24.0,0.,24.0
1989-08-24T13:48:08.780 ,5,1,0.,24.0,0.,24.0,0.,24.0,0.,24.0
1989-08-24T13:48:32.780 ,5,0,0.,24.0,0.,24.0,0.,24.0,0.,24.0
1989-08-24T13:48:56.780 ,6,1,0.,24.0,0.,24.0,0.,24.0,0.,24.0
1989-08-24T13:49:20.780 ,6,0,0.,24.0,0.,24.0,0.,24.0,0.,24.0
1989-08-24T13:49:44.780 ,7,1,0.,24.0,0.,24.0,0.,24.0,0.,24.0
1989-08-24T13:50:08.780 ,7,0,0.,24.0,0.,24.0,0.,24.0,0.,24.0
1989-08-24T13:50:32.780 ,7,1,0.,24.0,0.,24.0,0.,24.0,0.,24.0
1989-08-24T13:50:56.780 ,7,0,0.,24.0,0.,24.0,0.,24.0,0.,24.0
1989-08-24T13:51:20.780 ,6,1,0.,24.0,0.,24.0,0.,24.0,0.,24.0
1989-08-24T13:51:44.780 ,6,0,0.,24.0,0.,24.0,0.,24.0,0.,24.0
1989-08-24T13:52:08.780 ,5,1,0.,24.0,0.,24.0,0.,24.0,0.,24.0
1989-08-24T13:52:32.780 ,5,0,0.,24.0,0.,24.0,0.,24.0,0.,24.0
1989-08-24T13:52:56.780 ,4,1,0.,24.0,0.,24.0,0.,24.0,0.,24.0
1989-08-24T13:53:20.780 ,4,0,0.,24.0,0.,24.0,0.,24.0,0.,24.0
1989-08-24T13:53:44.780 ,3,1,0.,24.0,0.,24.0,0.,24.0,0.,24.0
1989-08-24T13:54:08.780 ,3,0,0.,24.0,0.,24.0,0.,24.0,0.,24.0
1989-08-24T13:54:32.780 ,2,1,0.,24.0,0.,24.0,0.,24.0,0.,24.0
1989-08-24T13:54:56.780 ,2,0,0.,24.0,0.,24.0,0.,24.0,0.,24.0
1989-08-24T13:55:20.780 ,1,1,0.,24.0,0.,24.0,0.,24.0,0.,24.0
1989-08-24T13:55:44.780 ,1,0,0.,24.0,0.,24.0,0.,24.0,0.,24.0
1989-08-24T13:56:08.780 ,0,1,0.,24.0,0.,24.0,0.,24.0,0.,24.0
1989-08-24T13:56:32.780 ,0,0,0.,24.0,0.,24.0,0.,24.0,0.,24.0
1989-08-24T13:56:56.780 ,0,1,0.,24.0,0.,24.0,0.,24.0,0.,24.0
1989-08-24T13:57:20.780 ,0,0,0.,24.0,0.,24.0,0.,24.0,0.,24.0
1989-08-24T13:57:44.780 ,1,1,0.,24.0,0.,24.0,0.,24.0,0.,24.0
1989-08-24T13:58:08.780 ,1,0,0.,24.0,0.,24.0,0.,24.0,0.,24.0
1989-08-24T13:58:32.780 ,2,1,0.,24.0,0.,24.0,0.,24.0,0.,24.0
1989-08-24T13:58:56.780 ,2,0,0.,24.0,0.,24.0,0.,24.0,0.,24.0
1989-08-24T13:59:20.780 ,3,1,0.,24.0,0.,24.0,0.,24.0,0.,24.0
1989-08-24T13:59:44.780 ,3,0,0.,24.0,0.,24.0,0.,24.0,0.,24.0
1989-08-24T14:00:08.780 ,4,1,0.,24.0,0.,24.0,0.,24.0,0.,24.0
1989-08-24T14:00:32.780 ,4,0,0.,24.0,0.,24.0,0.,24.0,0.,24.0
1989-08-24T14:00:56.780 ,5,1,0.,24.0,0.,24.0,0.,24.0,0.,24.0
1989-08-24T14:01:20.780 ,5,0,0.,24.0,0.,24.0,0.,24.0,0.,24.0
1989-08-24T14:01:44.780 ,6,1,0.,24.0,0.,24.0,0.,24.0,0.,24.0
1989-08-24T14:02:08.780 ,6,0,0.,24.0,0.,24.0,0.,24.0,0.,24.0
1989-08-24T14:02:32.780 ,7,1,0.,24.0,0.,24.0,0.,24.0,0.,24.0
1989-08-24T14:02:56.780 ,7,0,0.,24.0,0.,24.0,0.,24.0,0.,24.0
1989-08-24T14:03:20.780 ,7,1,0.,24.0,0.,24.0,0.,24.0,0.,24.0
1989-08-24T14:03:44.780 ,7,0,0.,24.0,0.,24.0,0.,24.0,0.,24.0
1989-08-24T14:04:08.780 ,6,1,0.,24.0,0.,24.0,0.,24.0,0.,24.0
1989-08-24T14:04:32.780 ,6,0,0.,24.0,0.,24.0,0.,24.0,0.,24.0
1989-08-24T14:04:56.780 ,5,1,0.,24.0,0.,24.0,0.,24.0,0.,24.0
1989-08-24T14:05:20.780 ,5,0,0.,24.0,0.,24.0,0.,24.0,0.,24.0
1989-08-24T14:05:44.780 ,4,1,0.,24.0,0.,24.0,0.,24.0,0.,24.0
1989-08-24T14:06:08.780 ,4,0,0.,24.0,0.,24.0,0.,24.0,0.,24.0
1989-08-24T14:06:32.780 ,3,1,0.,24.0,0.,24.0,0.,24.0,0.,24.0
1989-08-24T14:06:56.780 ,3,0,0.,24.0,0.,24.0,0.,24.0,0.,24.0
1989-08-24T14:07:20.780 ,2,1,0.,24.0,0.,24.0,0.,24.0,0.,24.0
1989-08-24T14:07:44.780 ,2,0,0.,24.0,0.,24.0,0.,24.0,0.,24.0
1989-08-24T14:08:08.770 ,1,1,0.,24.0,0.,24.0,0.,24.0,0.,24.0
1989-08-24T14:08:32.780 ,1,0,0.,24.0,0.,24.0,0.,24.0,0.,24.0
1989-08-24T14:08:56.780 ,0,1,0.,24.0,0.,24.0,0.,24.0,0.,24.0
1989-08-24T14:09:20.780 ,0,0,0.,24.0,0.,24.0,0.,24.0,0.,24.0
1989-08-24T14:09:44.780 ,0,1,0.,24.0,0.,24.0,0.,24.0,0.,24.0
1989-08-24T14:10:08.780 ,0,0,0.,24.0,0.,24.0,0.,24.0,0.,24.0
1989-08-24T14:10:32.780 ,1,1,0.,24.0,0.,24.0,0.,24.0,0.,24.0
1989-08-24T14:10:56.780 ,1,0,0.,24.0,0.,24.0,0.,24.0,0.,24.0
1989-08-24T14:11:20.780 ,2,1,0.,24.0,0.,24.0,0.,24.0,0.,24.0
1989-08-24T14:11:44.780 ,2,0,0.,24.0,0.,24.0,0.,24.0,0.,24.0
1989-08-24T14:12:08.780 ,3,1,0.,24.0,0.,24.0,0.,24.0,0.,24.0
1989-08-24T14:12:32.780 ,3,0,0.,24.0,0.,24.0,0.,24.0,0.,24.0
1989-08-24T14:12:56.780 ,4,1,0.,24.0,0.,24.0,0.,24.0,0.,24.0
1989-08-24T14:13:20.780 ,4,0,0.,24.0,0.,24.0,0.,24.0,0.,24.0
1989-08-24T14:12:56.780 ,0,0,,0,,0,,0,,0
1989-08-24T14:13:20.780 ,0,0,,0,,0,,0,,0
1989-08-24T14:13:44.780 ,5,1,0.,24.0,0.,24.0,0.,24.0,0.,24.0
1989-08-24T14:14:08.780 ,5,0,0.,24.0,0.,24.0,0.,24.0,0.,24.0
1989-08-24T14:14:32.780 ,6,1,0.,24.0,0.,24.0,0.,24.0,0.,24.0
1989-08-24T14:14:56.780 ,6,0,0.,24.0,0.,24.0,0.,24.0,0.,24.0
1989-08-24T14:15:20.780 ,7,1,0.,24.0,0.,24.0,0.,24.0,0.,24.0
1989-08-24T14:15:44.780 ,7,0,0.,24.0,0.,24.0,0.,24.0,0.,24.0
1989-08-24T14:16:08.780 ,7,1,0.,24.0,0.,24.0,0.,24.0,0.,24.0
1989-08-24T14:16:32.780 ,7,0,0.,24.0,0.,24.0,0.,24.0,0.,24.0
1989-08-24T14:16:56.780 ,6,1,0.,24.0,0.,24.0,0.,24.0,0.,24.0
1989-08-24T14:17:20.780 ,6,0,0.,24.0,0.,24.0,0.,24.0,0.,24.0
1989-08-24T14:17:44.780 ,5,1,0.,24.0,0.,24.0,0.,24.0,0.,24.0
1989-08-24T14:18:08.780 ,5,0,0.,24.0,0.,24.0,0.,24.0,0.,24.0
1989-08-24T14:18:32.780 ,4,1,0.,24.0,0.,24.0,0.,24.0,0.,24.0
1989-08-24T14:18:56.780 ,4,0,0.,24.0,0.,24.0,0.,24.0,0.,24.0
1989-08-24T14:19:20.780 ,3,1,0.,24.0,0.,24.0,0.,24.0,0.,24.0
1989-08-24T14:19:44.780 ,3,0,0.,24.0,0.,24.0,0.,24.0,0.,24.0
1989-08-24T14:20:08.780 ,2,1,0.,24.0,0.,24.0,0.,24.0,0.,24.0
1989-08-24T14:20:32.780 ,2,0,0.,24.0,0.,24.0,0.,24.0,0.,24.0
1989-08-24T14:20:56.770 ,1,1,0.,24.0,0.,24.0,0.,24.0,0.,24.0
1989-08-24T14:21:20.770 ,1,0,0.,24.0,0.,24.0,0.,24.0,0.,24.0
1989-08-24T14:21:44.770 ,0,1,0.,24.0,0.,24.0,0.,24.0,0.,24.0
1989-08-24T14:22:08.770 ,0,0,0.,24.0,0.,24.0,0.,24.0,0.,24.0
1989-08-24T14:22:32.770 ,0,1,0.,24.0,0.,24.0,0.,24.0,0.,24.0
1989-08-24T14:22:56.770 ,0,0,0.,24.0,0.,24.0,0.,24.0,0.,24.0
1989-08-24T14:23:20.770 ,1,1,0.,24.0,0.,24.0,0.,24.0,0.,24.0
1989-08-24T14:23:44.770 ,1,0,0.,24.0,0.,24.0,0.,24.0,0.,24.0
1989-08-24T14:24:08.770 ,2,1,0.,24.0,0.,24.0,0.,24.0,0.,24.0
1989-08-24T14:24:32.770 ,2,0,0.,24.0,0.,24.0,0.,24.0,0.,24.0
1989-08-24T14:24:56.770 ,3,1,0.,24.0,0.,24.0,0.,24.0,0.,24.0
1989-08-24T14:25:20.770 ,3,0,0.,24.0,0.,24.0,0.,24.0,0.,24.0
1989-08-24T14:25:44.770 ,4,1,0.,24.0,0.,24.0,0.,24.0,0.,24.0
1989-08-24T14:26:08.770 ,4,0,0.,24.0,0.,24.0,0.,24.0,0.,24.0
1989-08-24T14:26:32.770 ,5,1,0.,24.0,0.,24.0,0.,24.0,0.,24.0
1989-08-24T14:26:56.770 ,5,0,0.,24.0,0.,24.0,0.,24.0,0.,24.0
1989-08-24T14:27:20.770 ,6,1,0.,24.0,0.,24.0,0.,24.0,0.,24.0
1989-08-24T14:27:44.770 ,6,0,0.,24.0,0.,24.0,0.,24.0,0.,24.0
1989-08-24T14:28:08.770 ,7,1,0.,24.0,0.,24.0,0.,24.0,0.,24.0
1989-08-24T14:28:32.770 ,7,0,0.,24.0,0.,24.0,0.,24.0,0.,24.0
1989-08-24T14:28:56.770 ,7,1,0.,24.0,0.,24.0,0.,24.0,0.,24.0
1989-08-24T14:29:20.770 ,7,0,0.,24.0,0.,24.0,0.,24.0,0.,24.0
1989-08-24T14:29:44.770 ,6,1,0.,24.0,0.,24.0,0.,24.0,0.,24.0
1989-08-24T14:30:08.770 ,6,0,0.,24.0,0.,24.0,0.,24.0,0.,24.0
1989-08-24T14:30:32.770 ,5,1,0.,24.0,0.,24.0,0.,24.0,0.,24.0
1989-08-24T14:30:56.770 ,5,0,0.,24.0,0.,24.0,0.,24.0,0.,24.0
1989-08-24T14:31:20.770 ,4,1,0.,24.0,0.,24.0,0.,24.0,0.,24.0
1989-08-24T14:31:44.770 ,4,0,0.,24.0,0.,24.0,0.,24.0,0.,24.0
1989-08-24T14:32:08.770 ,3,1,0.,24.0,0.,24.0,0.,24.0,0.,24.0
1989-08-24T14:32:32.770 ,3,0,0.,24.0,0.,24.0,0.,24.0,0.,24.0
1989-08-24T14:32:56.770 ,2,1,0.,24.0,0.,24.0,0.,24.0,0.,24.0
1989-08-24T14:33:20.770 ,2,0,0.,24.0,0.,24.0,0.,24.0,0.,24.0